Flag for Germany Weather past 2 weeks in Aalen, Baden-Württemberg, Germany

Now
60 °F

Light rain. Low clouds.


Feels Like: 60 °F
Forecast: 61 / 70 °F
Wind: 6 mph from West

Location: Stoetten

Current Time: Jul 30, 2014 at 1:11:53 AM

Latest Report: Jul 30, 2014 at 12:00 AM


Visibility: 0 mi

Pressure: 29.78 "Hg

Humidity: 100%

Dew point: 60 °F

Location of AalenLocation

Historic Weather in Aalen — Graph

°F

Aalen temperature yesterday

Maximum temperature yesterday: 63 °F (at 4:00 PM)
Minimum temperature yesterday: 57 °F (at 4:00 AM)
Average temperature yesterday: 59 °F

Past Weeks' High & Low Weather Summary

 TemperatureHumidityPressure
High85 °F (Jul 19, 5:00 PM)100% (Jul 21, 12:00 AM)30.19 "Hg (Jul 21, 12:00 AM)
Low56 °F (Jul 15, 5:00 AM)31% (Jul 18, 4:00 PM)29.72 "Hg (Jul 28, 6:00 PM)
Average66 °F72%29.94 "Hg
* Reported Midnight between Jul 14 and Jul 15 — Midnight between Jul 29 and Jul 30, Aalen, Weather by CustomWeather, © 2014

Note: Actual official high and low records may vary slightly from our data, if they occured in-between our weather recording intervals... More about our weather records

Advertising

Aalen weather history for previous 24 hours

 ConditionsComfort  
Time TempWeatherWind HumidityBarometerVisibility
12:00 AM
Jul 30
60 °FLight rain. Low clouds.6 mph100%29.78 "Hg0 mi
11:00 PM
Jul 29
60 °FDrizzle. Low clouds.6 mph100%29.78 "Hg0 mi
10:00 PM60 °FLight rain. Low clouds.3 mph100%29.78 "Hg0 mi
9:00 PM61 °FDrizzle. Low clouds.3 mph99%29.76 "Hg0 mi
8:00 PM61 °FLight rain. Low clouds.3 mph99%29.76 "Hg1 mi
7:00 PM62 °FFog.5 mph98%29.76 "Hg2 mi
6:00 PM63 °FLow clouds.6 mph96%29.74 "Hg4 mi
5:00 PM63 °FFog.6 mph97%29.74 "Hg2 mi
4:00 PM63 °FFog.5 mph98%29.73 "Hg3 mi
3:00 PM61 °FFog.2 mph100%29.75 "Hg1 mi
2:00 PM60 °FFog.2 mph100%29.78 "Hg0 mi
1:00 PM60 °FFog.2 mph100%29.79 "Hg0 mi
12:00 PM60 °FDrizzle. Dense fog.2 mph100%29.78 "Hg0 mi
11:00 AM59 °FFog.2 mph100%29.78 "Hg0 mi
10:00 AM58 °FDrizzle. Dense fog.2 mph100%29.78 "Hg0 mi
9:00 AM58 °FFog.2 mph100%29.79 "Hg0 mi
8:00 AM58 °FFog.3 mph100%29.78 "Hg0 mi
7:00 AM57 °FFog.2 mph100%29.78 "Hg0 mi
6:00 AM57 °FLight rain. Dense fog.5 mph100%29.78 "Hg0 mi
5:00 AM57 °FLight rain. Low clouds.5 mph100%29.79 "Hg0 mi
4:00 AM57 °FLow clouds.5 mph100%29.80 "Hg0 mi
3:00 AM57 °FLight rain. Low clouds.3 mph100%29.80 "Hg0 mi
2:00 AM57 °FLight rain. Low clouds.5 mph100%29.81 "Hg1 mi
1:00 AM57 °FLight rain. Overcast.5 mph100%29.82 "Hg7 mi
Weather by CustomWeather, © 2014

See weather overviewHow to use our weather pages